Location: Downe
(51.3167°N, 0.0500°E)
Time: 12:29:15
(UTC+00:00)

Cosmos 158 Rocket - Pass Details

Date: 17 November 2019
Orbit: 699 x 793 km, 74.0° (Epoch: 07 December)

Event Time Altitude Azimuth Distance (km) Brightness Sun altitude
Exits shadow 04:34:13 59° 182° (S) 817 4.0 -25.6°
Drops below altitude 10° 04:38:14 10° 163° (SSE) 2,166 6.5 -25.0°
Sets 04:40:31 0° 162° (SSE) 3,075 7.4 -24.6°
